Total_Precipitation_Accumulation
0.02 0.07 0.16 0.23 0.36 0.14 0.00 0.00 0.00 0.00 0.00 0.00 0.00 0.00 0.00 0.02 0.11 0.28 0.08 0.04 0.01 0.00 0.01 0.03 0.04 0.03 0.04 0.03 0.03 0.05 0.09 0.10 0.07 0.06 0.06 0.05 0.04 0.04 0.04 0.03 0.03 0.02 0.04 0.07 0.11 0.18 0.22 0.26 0.31
0.05 0.16 0.22 0.31 0.23 0.02 0.01 0.00 0.00 0.00 0.00 0.00 0.00 0.00 0.00 0.00 0.01 0.03 0.08 0.08 0.01 0.00 0.01 0.01 0.02 0.04 0.06 0.05 0.05 0.06 0.09 0.12 0.09 0.07 0.07 0.04 0.04 0.04 0.05 0.04 0.03 0.02 0.03 0.05 0.08 0.12 0.18 0.25 0.31
0.11 0.18 0.25 0.24 0.06 0.01 0.01 0.01 0.01 0.00 0.00 0.00 0.00 0.00 0.00 0.01 0.01 0.02 0.04 0.05 0.01 0.00 0.01 0.03 0.04 0.06 0.10 0.09 0.09 0.11 0.11 0.12 0.10 0.08 0.07 0.05 0.05 0.04 0.04 0.04 0.04 0.04 0.04 0.04 0.07 0.09 0.16 0.22 0.24
0.11 0.20 0.21 0.10 0.02 0.02 0.02 0.01 0.01 0.00 0.00 0.00 0.00 0.00 0.01 0.01 0.01 0.02 0.04 0.04 0.02 0.01 0.02 0.06 0.07 0.10 0.15 0.16 0.17 0.21 0.18 0.16 0.12 0.09 0.06 0.07 0.06 0.03 0.02 0.04 0.08 0.05 0.02 0.03 0.05 0.10 0.16 0.20 0.23
0.09 0.17 0.12 0.06 0.05 0.06 0.07 0.04 0.02 0.03 0.01 0.00 0.00 0.00 0.01 0.02 0.02 0.04 0.07 0.05 0.04 0.04 0.04 0.06 0.09 0.12 0.20 0.21 0.18 0.27 0.29 0.28 0.17 0.10 0.07 0.07 0.04 0.02 0.02 0.06 0.08 0.07 0.04 0.02 0.02 0.06 0.10 0.14 0.19
0.09 0.22 0.17 0.12 0.11 0.13 0.19 0.14 0.07 0.06 0.03 0.01 0.01 0.01 0.03 0.05 0.06 0.07 0.08 0.09 0.10 0.10 0.09 0.08 0.12 0.16 0.23 0.25 0.28 0.40 0.42 0.36 0.21 0.10 0.11 0.09 0.07 0.02 0.02 0.05 0.05 0.08 0.08 0.03 0.02 0.03 0.05 0.06 0.10
0.06 0.18 0.22 0.13 0.15 0.29 0.29 0.23 0.14 0.09 0.05 0.06 0.03 0.03 0.08 0.08 0.09 0.08 0.09 0.13 0.17 0.20 0.19 0.16 0.17 0.19 0.26 0.34 0.39 0.49 0.54 0.47 0.29 0.14 0.13 0.11 0.07 0.03 0.02 0.02 0.03 0.03 0.03 0.02 0.02 0.02 0.02 0.02 0.03
0.02 0.10 0.18 0.24 0.31 0.49 0.45 0.26 0.11 0.06 0.08 0.09 0.08 0.12 0.28 0.22 0.17 0.14 0.12 0.15 0.18 0.21 0.23 0.24 0.23 0.28 0.37 0.46 0.56 0.60 0.71 0.77 0.53 0.28 0.16 0.11 0.08 0.05 0.02 0.02 0.02 0.01 0.01 0.01 0.01 0.01 0.01 0.01 0.01
0.02 0.09 0.31 0.59 0.58 0.35 0.31 0.25 0.12 0.09 0.08 0.09 0.10 0.15 0.22 0.25 0.24 0.22 0.21 0.22 0.21 0.20 0.22 0.26 0.28 0.33 0.36 0.40 0.50 0.68 0.79 0.90 0.69 0.38 0.24 0.15 0.12 0.14 0.12 0.07 0.04 0.03 0.02 0.00 0.00 0.00 0.00 0.00 0.02
0.02 0.12 0.37 0.52 0.38 0.22 0.19 0.17 0.15 0.13 0.10 0.10 0.12 0.16 0.20 0.23 0.28 0.31 0.33 0.36 0.33 0.30 0.25 0.24 0.23 0.29 0.35 0.34 0.51 0.74 0.76 0.87 0.67 0.56 0.50 0.38 0.41 0.38 0.24 0.19 0.15 0.09 0.03 0.00 0.00 0.00 0.00 0.00 0.00
0.03 0.11 0.22 0.21 0.15 0.15 0.10 0.10 0.11 0.10 0.09 0.10 0.11 0.17 0.19 0.23 0.27 0.32 0.36 0.37 0.36 0.33 0.29 0.27 0.26 0.27 0.32 0.49 0.69 0.85 0.86 0.87 0.92 0.98 0.82 0.73 0.64 0.45 0.23 0.21 0.20 0.11 0.06 0.02 0.00 0.00 0.00 0.00 0.00
0.04 0.07 0.08 0.10 0.10 0.10 0.09 0.08 0.09 0.09 0.09 0.09 0.12 0.17 0.24 0.29 0.30 0.31 0.37 0.42 0.45 0.44 0.42 0.35 0.26 0.27 0.33 0.45 0.64 0.86 0.87 0.86 0.88 0.83 0.60 0.68 0.69 0.48 0.33 0.34 0.33 0.18 0.11 0.06 0.02 0.00 0.00 0.00 0.00
0.05 0.08 0.08 0.07 0.09 0.10 0.11 0.10 0.09 0.10 0.12 0.11 0.15 0.22 0.30 0.35 0.34 0.30 0.31 0.36 0.43 0.53 0.61 0.59 0.43 0.36 0.38 0.42 0.47 0.59 0.65 0.71 0.91 0.93 0.62 0.58 0.57 0.54 0.50 0.37 0.37 0.30 0.23 0.14 0.05 0.02 0.01 0.00 0.00
0.05 0.08 0.08 0.06 0.08 0.09 0.11 0.11 0.09 0.11 0.14 0.13 0.15 0.22 0.29 0.36 0.40 0.38 0.35 0.33 0.33 0.36 0.49 0.57 0.55 0.54 0.51 0.45 0.39 0.39 0.43 0.54 0.65 0.61 0.49 0.50 0.49 0.52 0.56 0.40 0.32 0.30 0.35 0.27 0.14 0.06 0.03 0.02 0.01
0.02 0.04 0.06 0.07 0.10 0.12 0.15 0.13 0.08 0.09 0.12 0.11 0.11 0.14 0.19 0.25 0.31 0.35 0.32 0.26 0.25 0.26 0.32 0.42 0.50 0.56 0.58 0.59 0.57 0.47 0.46 0.51 0.50 0.47 0.50 0.55 0.50 0.54 0.60 0.46 0.32 0.25 0.29 0.30 0.25 0.17 0.09 0.05 0.03
0.02 0.06 0.15 0.13 0.16 0.19 0.20 0.15 0.09 0.10 0.09 0.08 0.07 0.08 0.11 0.12 0.15 0.22 0.27 0.27 0.25 0.25 0.25 0.31 0.36 0.43 0.52 0.61 0.68 0.66 0.61 0.55 0.49 0.44 0.40 0.43 0.42 0.45 0.56 0.52 0.35 0.26 0.32 0.39 0.38 0.28 0.17 0.08 0.04
0.04 0.10 0.16 0.13 0.13 0.14 0.13 0.11 0.08 0.07 0.05 0.03 0.03 0.03 0.05 0.07 0.09 0.11 0.15 0.20 0.24 0.24 0.23 0.24 0.28 0.32 0.40 0.50 0.57 0.57 0.56 0.51 0.49 0.47 0.36 0.34 0.34 0.42 0.57 0.63 0.56 0.49 0.46 0.48 0.46 0.40 0.28 0.15 0.08
0.03 0.02 0.04 0.05 0.05 0.06 0.07 0.07 0.06 0.04 0.02 0.01 0.01 0.02 0.02 0.01 0.03 0.06 0.09 0.15 0.23 0.24 0.24 0.24 0.26 0.27 0.30 0.35 0.42 0.47 0.42 0.40 0.45 0.44 0.42 0.45 0.51 0.55 0.69 0.82 0.86 0.86 0.78 0.69 0.68 0.68 0.51 0.30 0.17
0.02 0.00 0.00 0.01 0.01 0.01 0.02 0.02 0.02 0.01 0.01 0.00 0.00 0.01 0.01 0.01 0.01 0.01 0.02 0.06 0.13 0.18 0.17 0.19 0.24 0.26 0.24 0.23 0.28 0.32 0.32 0.39 0.46 0.53 0.59 0.63 0.66 0.71 0.86 1.02 1.19 1.24 1.04 0.94 0.97 0.99 0.91 0.60 0.30
0.01 0.01 0.00 0.01 0.01 0.01 0.01 0.01 0.01 0.01 0.01 0.00 0.01 0.01 0.01 0.01 0.01 0.01 0.01 0.01 0.02 0.05 0.09 0.13 0.15 0.17 0.16 0.17 0.23 0.31 0.37 0.41 0.52 0.68 0.78 0.80 0.79 0.83 0.87 1.02 1.14 1.16 1.13 1.10 1.04 1.06 1.15 0.91 0.54
0.00 0.00 0.00 0.00 0.00 0.01 0.01 0.01 0.02 0.02 0.02 0.01 0.02 0.02 0.02 0.02 0.02 0.02 0.02 0.01 0.01 0.02 0.03 0.06 0.11 0.14 0.14 0.22 0.41 0.67 0.91 0.97 0.98 0.99 1.12 1.22 1.17 1.10 1.07 1.09 1.19 1.23 1.28 1.20 1.13 1.07 1.13 1.05 0.79
0.00 0.00 0.00 0.00 0.00 0.00 0.00 0.02 0.02 0.04 0.05 0.06 0.06 0.07 0.07 0.08 0.06 0.04 0.03 0.03 0.02 0.03 0.03 0.04 0.09 0.15 0.18 0.35 0.68 1.06 1.38 1.46 1.46 1.56 1.58 1.63 1.56 1.41 1.39 1.39 1.44 1.35 1.28 1.17 1.12 1.07 1.07 1.18 1.06
0.00 0.00 0.00 0.00 0.01 0.00 0.00 0.01 0.04 0.07 0.12 0.16 0.16 0.17 0.18 0.15 0.11 0.08 0.07 0.06 0.08 0.10 0.11 0.13 0.20 0.34 0.50 0.65 0.82 1.12 1.31 1.42 1.54 1.68 1.81 1.91 2.03 2.00 1.93 1.85 1.67 1.44 1.31 1.27 1.28 1.20 1.17 1.18 1.12
0.00 0.00 0.00 0.00 0.00 0.00 0.00 0.02 0.09 0.16 0.20 0.24 0.24 0.25 0.24 0.19 0.13 0.10 0.10 0.11 0.16 0.24 0.27 0.31 0.41 0.51 0.58 0.70 0.83 0.98 1.06 1.23 1.41 1.56 1.72 1.84 1.95 1.97 1.93 1.79 1.55 1.35 1.24 1.26 1.32 1.28 1.24 1.18 1.15
0.00 0.00 0.00 0.01 0.02 0.03 0.02 0.07 0.16 0.17 0.17 0.20 0.21 0.18 0.15 0.15 0.15 0.14 0.13 0.19 0.24 0.33 0.37 0.44 0.52 0.62 0.65 0.72 0.83 0.91 0.97 1.10 1.25 1.31 1.35 1.36 1.35 1.38 1.41 1.40 1.34 1.28 1.21 1.26 1.37 1.39 1.36 1.29 1.19
0.00 0.00 0.01 0.02 0.03 0.04 0.04 0.13 0.24 0.16 0.10 0.08 0.10 0.11 0.12 0.17 0.21 0.20 0.20 0.27 0.33 0.41 0.52 0.60 0.68 0.70 0.71 0.80 0.89 0.90 0.99 1.10 1.19 1.14 1.09 1.10 1.12 1.19 1.19 1.25 1.24 1.21 1.20 1.19 1.22 1.30 1.36 1.33 1.23
0.00 0.00 0.01 0.03 0.02 0.02 0.05 0.15 0.15 0.07 0.05 0.05 0.09 0.15 0.20 0.27 0.30 0.31 0.33 0.38 0.41 0.49 0.60 0.68 0.73 0.75 0.82 0.86 0.94 1.08 1.12 1.13 1.10 0.99 0.94 0.94 0.89 0.89 1.00 1.09 1.12 1.07 1.05 1.07 1.14 1.26 1.29 1.29 1.27
0.00 0.01 0.02 0.03 0.04 0.07 0.11 0.15 0.13 0.08 0.10 0.12 0.17 0.24 0.35 0.44 0.45 0.47 0.52 0.56 0.56 0.57 0.65 0.73 0.80 0.87 0.89 0.91 1.02 1.19 1.14 0.91 0.76 0.66 0.70 0.74 0.76 0.79 0.85 0.82 0.77 0.74 0.78 0.80 0.88 1.00 1.05 1.07 1.09
0.05 0.03 0.02 0.02 0.03 0.14 0.29 0.42 0.46 0.45 0.38 0.42 0.42 0.49 0.63 0.68 0.69 0.69 0.70 0.72 0.66 0.67 0.73 0.78 0.83 0.93 0.97 0.93 1.03 1.06 0.85 0.60 0.49 0.47 0.45 0.44 0.46 0.50 0.58 0.53 0.49 0.54 0.57 0.53 0.58 0.64 0.72 0.79 0.80
0.07 0.06 0.03 0.05 0.07 0.16 0.33 0.54 0.64 0.70 0.68 0.79 0.85 0.96 0.89 0.83 0.83 0.77 0.70 0.68 0.57 0.57 0.67 0.75 0.84 0.89 0.84 0.80 0.78 0.65 0.47 0.37 0.34 0.30 0.25 0.22 0.22 0.22 0.29 0.31 0.32 0.39 0.49 0.50 0.53 0.52 0.50 0.54 0.57